Time,TemperatureF,DewpointF,PressureIn,WindDirection,WindDirectionDegrees,WindSpeedMPH,WindSpeedGustMPH,Humidity,HourlyPrecipIn,Conditions,Clouds,dailyrainin,SolarRadiationWatts/m^2,SoftwareType,DateUTC
2013-06-09 00:00:00,74.3,72.5,30.11,ESE,112,3.0,8.0,94,0.00,,---,0.00,0.00,VWS V14.01,2013-06-09 04:00:00,
2013-06-09 00:09:00,74.4,73.0,30.11,South,178,5.0,7.0,94,0.00,,,0.00,0,weatherlink.com 1.10,2013-06-09 04:09:00,
2013-06-09 00:24:00,74.4,73.0,30.11,South,169,6.0,8.0,94,0.00,,,0.00,0,weatherlink.com 1.10,2013-06-09 04:24:00,
2013-06-09 00:30:00,74.5,72.7,30.11,SSE,158,5.0,9.0,94,0.00,,---,0.00,0.00,VWS V14.01,2013-06-09 04:30:00,
2013-06-09 00:39:00,74.6,73.0,30.11,SE,134,5.0,8.0,95,0.00,,,0.00,0,weatherlink.com 1.10,2013-06-09 04:39:00,
2013-06-09 00:54:00,74.7,73.0,30.11,ESE,105,3.0,8.0,94,0.00,,,0.00,0,weatherlink.com 1.10,2013-06-09 04:54:00,
2013-06-09 01:00:00,74.6,72.8,30.11,SSE,158,5.0,9.0,94,0.00,,---,0.00,0.00,VWS V14.01,2013-06-09 05:00:00,
2013-06-09 01:09:00,74.5,73.0,30.11,ESE,117,4.0,9.0,95,0.00,,,0.00,0,weatherlink.com 1.10,2013-06-09 05:09:00,
2013-06-09 01:24:00,74.7,73.0,30.10,SE,132,2.0,7.0,95,0.00,,,0.00,0,weatherlink.com 1.10,2013-06-09 05:24:00,
2013-06-09 01:30:00,74.8,73.3,30.10,SE,135,4.0,9.0,95,0.00,,---,0.00,0.00,VWS V14.01,2013-06-09 05:30:00,
2013-06-09 01:39:00,74.7,73.0,30.10,SE,142,3.0,5.0,95,0.00,,,0.00,0,weatherlink.com 1.10,2013-06-09 05:39:00,
2013-06-09 01:54:00,74.5,73.0,30.09,SSE,160,3.0,5.0,95,0.00,,,0.00,0,weatherlink.com 1.10,2013-06-09 05:54:00,
2013-06-09 02:00:00,74.4,72.6,30.09,SE,135,3.0,7.0,94,0.00,,---,0.00,0.00,VWS V14.01,2013-06-09 06:00:00,
2013-06-09 02:09:00,74.2,72.0,30.09,ESE,123,1.0,5.0,94,0.00,,,0.00,0,weatherlink.com 1.10,2013-06-09 06:09:00,
2013-06-09 02:24:00,74.3,73.0,30.08,ESE,108,3.0,5.0,94,0.00,,,0.00,0,weatherlink.com 1.10,2013-06-09 06:24:00,
2013-06-09 02:30:00,74.3,72.5,30.08,SE,135,3.0,5.0,94,0.00,,---,0.00,0.00,VWS V14.01,2013-06-09 06:30:00,
2013-06-09 02:39:00,74.3,73.0,30.08,SSE,150,2.0,5.0,94,0.00,,,0.00,0,weatherlink.com 1.10,2013-06-09 06:39:00,
2013-06-09 02:54:00,74.2,72.0,30.08,South,177,2.0,4.0,94,0.00,,,0.00,0,weatherlink.com 1.10,2013-06-09 06:54:00,
2013-06-09 03:00:00,74.2,72.4,30.08,SSE,158,2.0,5.0,94,0.00,,---,0.00,0.00,VWS V14.01,2013-06-09 07:00:00,
2013-06-09 03:09:00,74.2,72.0,30.07,SE,134,2.0,4.0,94,0.00,,,0.00,0,weatherlink.com 1.10,2013-06-09 07:09:00,
2013-06-09 03:24:00,74.2,72.0,30.07,ESE,121,2.0,3.0,94,0.00,,,0.00,0,weatherlink.com 1.10,2013-06-09 07:24:00,
2013-06-09 03:30:00,74.2,72.4,30.06,ESE,112,1.0,4.0,94,0.00,,---,0.00,0.00,VWS V14.01,2013-06-09 07:30:00,
2013-06-09 03:39:00,74.2,72.0,30.06,SE,130,2.0,5.0,94,0.00,,,0.00,0,weatherlink.com 1.10,2013-06-09 07:39:00,
2013-06-09 03:54:00,74.2,72.0,30.06,ESE,111,3.0,5.0,94,0.00,,,0.00,0,weatherlink.com 1.10,2013-06-09 07:54:00,
2013-06-09 04:00:00,74.3,72.5,30.06,ESE,112,2.0,5.0,94,0.00,,---,0.00,0.00,VWS V14.01,2013-06-09 08:00:00,
2013-06-09 04:09:00,74.3,73.0,30.06,ESE,107,2.0,3.0,94,0.00,,,0.00,0,weatherlink.com 1.10,2013-06-09 08:09:00,
2013-06-09 04:24:00,74.4,73.0,30.06,ESE,108,1.0,3.0,94,0.00,,,0.00,0,weatherlink.com 1.10,2013-06-09 08:24:00,
2013-06-09 04:30:00,74.5,72.7,30.06,ESE,112,2.0,3.0,94,0.00,,---,0.00,0.00,VWS V14.01,2013-06-09 08:30:00,
2013-06-09 04:39:00,74.5,73.0,30.06,ESE,108,3.0,3.0,94,0.00,,,0.00,0,weatherlink.com 1.10,2013-06-09 08:39:00,
2013-06-09 04:54:00,74.7,73.0,30.06,SE,139,2.0,3.0,94,0.00,,,0.00,0,weatherlink.com 1.10,2013-06-09 08:54:00,
2013-06-09 05:00:00,74.7,72.9,30.06,ESE,112,2.0,4.0,94,0.00,,---,0.00,0.00,VWS V14.01,2013-06-09 09:00:00,
2013-06-09 05:09:00,74.8,73.0,30.06,SE,142,0.0,3.0,94,0.00,,,0.00,0,weatherlink.com 1.10,2013-06-09 09:09:00,
2013-06-09 05:24:00,74.9,73.0,30.06,SE,142,1.0,3.0,94,0.00,,,0.00,0,weatherlink.com 1.10,2013-06-09 09:24:00,
2013-06-09 05:30:00,74.9,73.1,30.06,SE,135,1.0,3.0,94,0.00,,---,0.00,0.00,VWS V14.01,2013-06-09 09:30:00,
2013-06-09 05:39:00,75.2,73.0,30.07,ESE,115,2.0,4.0,94,0.00,,,0.00,0,weatherlink.com 1.10,2013-06-09 09:39:00,
2013-06-09 05:54:00,75.3,74.0,30.07,ESE,111,2.0,4.0,94,0.00,,,0.00,0,weatherlink.com 1.10,2013-06-09 09:54:00,
2013-06-09 06:00:00,75.3,73.5,30.07,ESE,112,2.0,4.0,94,0.00,,---,0.00,0.00,VWS V14.01,2013-06-09 10:00:00,
2013-06-09 06:09:00,75.2,73.0,30.07,ESE,111,2.0,3.0,94,0.00,,,0.00,0,weatherlink.com 1.10,2013-06-09 10:09:00,
2013-06-09 06:24:00,75.1,73.0,30.08,SE,144,0.0,2.0,94,0.00,,,0.00,0,weatherlink.com 1.10,2013-06-09 10:24:00,
2013-06-09 06:30:00,75.0,73.2,30.08,ESE,112,1.0,3.0,94,0.00,,---,0.00,0.00,VWS V14.01,2013-06-09 10:30:00,
2013-06-09 06:39:00,75.0,73.0,30.08,SE,144,0.0,1.0,94,0.00,,,0.00,14,weatherlink.com 1.10,2013-06-09 10:39:00,
2013-06-09 06:54:00,75.0,73.0,30.09,SE,144,0.0,2.0,94,0.00,,,0.00,30,weatherlink.com 1.10,2013-06-09 10:54:00,
2013-06-09 07:00:00,75.0,73.2,30.09,SE,135,0.0,2.0,94,0.00,,---,0.00,19.00,VWS V14.01,2013-06-09 11:00:00,
2013-06-09 07:09:00,75.1,73.0,30.09,SE,144,0.0,0.0,94,0.00,,,0.00,56,weatherlink.com 1.10,2013-06-09 11:09:00,
2013-06-09 07:24:00,75.7,74.0,30.09,SE,144,0.0,1.0,94,0.00,,,0.00,63,weatherlink.com 1.10,2013-06-09 11:24:00,
2013-06-09 07:30:00,75.9,74.1,30.09,SE,135,0.0,2.0,94,0.00,,---,0.00,65.00,VWS V14.01,2013-06-09 11:30:00,
2013-06-09 07:39:00,76.4,75.0,30.09,ESE,109,1.0,4.0,94,0.00,,,0.00,142,weatherlink.com 1.10,2013-06-09 11:39:00,
2013-06-09 07:54:00,77.4,76.0,30.09,ESE,109,3.0,3.0,94,0.01,,,0.01,211,weatherlink.com 1.10,2013-06-09 11:54:00,
2013-06-09 08:00:00,77.7,75.5,30.09,ESE,112,1.0,4.0,93,0.01,,---,0.01,172.00,VWS V14.01,2013-06-09 12:00:00,
2013-06-09 08:10:00,78.4,76.0,30.09,ESE,109,1.0,4.0,92,0.01,,,0.01,274,weatherlink.com 1.10,2013-06-09 12:10:00,
2013-06-09 08:25:00,80.0,77.0,30.11,ESE,109,0.0,1.0,91,0.01,,,0.01,338,weatherlink.com 1.10,2013-06-09 12:25:00,
2013-06-09 08:30:00,80.3,77.1,30.10,ESE,112,1.0,4.0,90,0.01,,---,0.01,294.00,VWS V14.01,2013-06-09 12:30:00,
2013-06-09 08:40:00,81.5,78.0,30.11,ESE,109,0.0,2.0,88,0.01,,,0.01,385,weatherlink.com 1.10,2013-06-09 12:40:00,
2013-06-09 08:55:00,82.8,77.0,30.11,ESE,109,1.0,3.0,83,0.00,,,0.01,434,weatherlink.com 1.10,2013-06-09 12:55:00,
2013-06-09 09:00:00,83.1,77.0,30.11,ESE,112,1.0,3.0,82,0.01,,---,0.01,401.00,VWS V14.01,2013-06-09 13:00:00,
2013-06-09 09:10:00,84.3,77.0,30.12,ESE,109,0.0,3.0,79,0.00,,,0.01,482,weatherlink.com 1.10,2013-06-09 13:10:00,
2013-06-09 09:25:00,85.7,77.0,30.12,ESE,109,0.0,2.0,76,0.00,,,0.01,545,weatherlink.com 1.10,2013-06-09 13:25:00,
2013-06-09 09:30:00,86.1,77.2,30.12,ESE,112,1.0,3.0,75,0.00,,---,0.01,500.00,VWS V14.01,2013-06-09 13:30:00,
2013-06-09 09:40:00,87.1,77.0,30.11,ESE,109,0.0,2.0,72,0.00,,,0.01,598,weatherlink.com 1.10,2013-06-09 13:40:00,
2013-06-09 09:55:00,88.4,77.0,30.12,ESE,109,0.0,3.0,69,0.00,,,0.01,666,weatherlink.com 1.10,2013-06-09 13:55:00,
2013-06-09 10:00:00,88.6,77.1,30.12,ESE,112,1.0,3.0,69,0.00,,---,0.01,621.00,VWS V14.01,2013-06-09 14:00:00,
2013-06-09 10:10:00,89.4,78.0,30.11,South,188,3.0,4.0,68,0.00,,,0.01,664,weatherlink.com 1.10,2013-06-09 14:10:00,
2013-06-09 10:25:00,89.4,77.0,30.11,ESE,114,3.0,5.0,67,0.00,,,0.01,728,weatherlink.com 1.10,2013-06-09 14:25:00,
2013-06-09 10:30:00,89.3,76.9,30.11,ESE,112,3.0,5.0,67,0.00,,---,0.01,721.00,VWS V14.01,2013-06-09 14:30:00,
2013-06-09 10:40:00,89.1,76.0,30.11,SE,144,4.0,5.0,66,0.00,,,0.01,770,weatherlink.com 1.10,2013-06-09 14:40:00,
2013-06-09 10:55:00,88.9,77.0,30.11,ESE,107,1.0,5.0,67,0.00,,,0.01,798,weatherlink.com 1.10,2013-06-09 14:55:00,
2013-06-09 11:00:00,89.0,76.6,30.11,ESE,112,3.0,6.0,67,0.00,,---,0.01,780.00,VWS V14.01,2013-06-09 15:00:00,
2013-06-09 11:10:00,89.4,77.0,30.12,East,98,3.0,4.0,66,0.00,,,0.01,538,weatherlink.com 1.10,2013-06-09 15:10:00,
2013-06-09 11:25:00,90.0,77.0,30.12,ESE,119,2.0,5.0,65,0.00,,,0.01,893,weatherlink.com 1.10,2013-06-09 15:25:00,
2013-06-09 11:30:00,90.1,76.8,30.12,ESE,112,3.0,6.0,65,0.00,,---,0.01,807.00,VWS V14.01,2013-06-09 15:30:00,
2013-06-09 11:40:00,90.3,77.0,30.12,SSE,152,4.0,4.0,65,0.00,,,0.01,830,weatherlink.com 1.10,2013-06-09 15:40:00,
2013-06-09 11:55:00,90.1,77.0,30.12,ESE,108,2.0,4.0,65,0.00,,,0.01,919,weatherlink.com 1.10,2013-06-09 15:55:00,
2013-06-09 12:00:00,90.2,76.8,30.12,ESE,112,2.0,5.0,65,0.00,,---,0.01,880.00,VWS V14.01,2013-06-09 16:00:00,
2013-06-09 12:10:00,90.6,77.0,30.12,SSE,157,5.0,5.0,65,0.00,,,0.01,951,weatherlink.com 1.10,2013-06-09 16:10:00,
2013-06-09 12:25:00,90.0,77.0,30.12,ESE,103,3.0,5.0,66,0.00,,,0.01,972,weatherlink.com 1.10,2013-06-09 16:25:00,
2013-06-09 12:30:00,89.9,77.0,30.12,SSE,158,3.0,7.0,66,0.00,,---,0.01,955.00,VWS V14.01,2013-06-09 16:30:00,
2013-06-09 12:40:00,89.3,77.0,30.12,SSE,155,4.0,6.0,67,0.00,,,0.01,984,weatherlink.com 1.10,2013-06-09 16:40:00,
2013-06-09 12:55:00,88.2,76.0,30.13,SE,129,4.0,8.0,67,0.00,,,0.01,991,weatherlink.com 1.10,2013-06-09 16:55:00,
2013-06-09 13:00:00,88.1,76.2,30.13,SE,135,4.0,9.0,68,0.00,,---,0.01,964.00,VWS V14.01,2013-06-09 17:00:00,
2013-06-09 13:10:00,87.6,76.0,30.13,ESE,119,5.0,8.0,68,0.00,,,0.01,995,weatherlink.com 1.10,2013-06-09 17:10:00,
2013-06-09 13:26:00,87.5,76.0,30.13,SE,131,3.0,5.0,69,0.00,,,0.01,1007,weatherlink.com 1.10,2013-06-09 17:26:00,
2013-06-09 13:30:00,87.7,76.3,30.12,ESE,112,4.0,8.0,69,0.00,,---,0.01,997.00,VWS V14.01,2013-06-09 17:30:00,
2013-06-09 13:41:00,88.2,76.0,30.13,SE,124,3.0,7.0,68,0.00,,,0.01,990,weatherlink.com 1.10,2013-06-09 17:41:00,
2013-06-09 13:56:00,88.0,77.0,30.12,SE,144,7.0,8.0,69,0.00,,,0.01,1018,weatherlink.com 1.10,2013-06-09 17:56:00,
2013-06-09 14:00:00,87.9,76.5,30.12,SE,135,5.0,8.0,69,0.00,,---,0.01,1029.00,VWS V14.01,2013-06-09 18:00:00,
2013-06-09 14:11:00,86.8,76.0,30.11,SE,138,6.0,8.0,71,0.00,,,0.01,969,weatherlink.com 1.10,2013-06-09 18:11:00,
2013-06-09 14:26:00,86.1,76.0,30.11,South,172,4.0,7.0,72,0.00,,,0.01,911,weatherlink.com 1.10,2013-06-09 18:26:00,
2013-06-09 14:30:00,85.9,75.8,30.11,SSE,158,5.0,8.0,72,0.00,,---,0.01,948.00,VWS V14.01,2013-06-09 18:30:00,
2013-06-09 14:41:00,85.9,76.0,30.10,SSE,167,5.0,7.0,73,0.00,,,0.01,970,weatherlink.com 1.10,2013-06-09 18:41:00,
2013-06-09 14:56:00,86.0,76.0,30.09,South,175,5.0,9.0,72,0.00,,,0.01,933,weatherlink.com 1.10,2013-06-09 18:56:00,
2013-06-09 15:00:00,86.0,75.9,30.09,South,180,5.0,9.0,72,0.00,,---,0.01,930.00,VWS V14.01,2013-06-09 19:00:00,
2013-06-09 15:11:00,85.7,76.0,30.09,SSE,161,4.0,7.0,73,0.00,,,0.01,830,weatherlink.com 1.10,2013-06-09 19:11:00,
2013-06-09 15:26:00,85.1,76.0,30.09,SE,125,5.0,7.0,73,0.00,,,0.01,856,weatherlink.com 1.10,2013-06-09 19:26:00,
2013-06-09 15:30:00,85.1,75.9,30.09,SSE,158,5.0,8.0,74,0.00,,---,0.01,822.00,VWS V14.01,2013-06-09 19:30:00,
2013-06-09 15:41:00,85.0,76.0,30.08,SSE,157,6.0,8.0,74,0.00,,,0.01,796,weatherlink.com 1.10,2013-06-09 19:41:00,
2013-06-09 15:56:00,85.0,76.0,30.08,South,186,5.0,7.0,75,0.00,,,0.01,840,weatherlink.com 1.10,2013-06-09 19:56:00,
2013-06-09 16:00:00,85.1,76.3,30.08,SSE,158,6.0,9.0,75,0.00,,---,0.01,884.00,VWS V14.01,2013-06-09 20:00:00,
2013-06-09 16:11:00,85.6,77.0,30.07,SSW,194,6.0,7.0,75,0.00,,,0.01,796,weatherlink.com 1.10,2013-06-09 20:11:00,
2013-06-09 16:26:00,85.9,76.0,30.07,SSE,164,6.0,8.0,73,0.00,,,0.01,756,weatherlink.com 1.10,2013-06-09 20:26:00,
2013-06-09 16:30:00,85.8,76.2,30.07,South,180,6.0,8.0,73,0.00,,---,0.01,788.00,VWS V14.01,2013-06-09 20:30:00,
2013-06-09 16:41:00,85.3,77.0,30.07,SSE,164,5.0,7.0,75,0.00,,,0.01,710,weatherlink.com 1.10,2013-06-09 20:41:00,
2013-06-09 16:56:00,85.3,77.0,30.07,SSW,196,4.0,7.0,75,0.00,,,0.01,661,weatherlink.com 1.10,2013-06-09 20:56:00,
2013-06-09 17:00:00,85.4,76.6,30.07,South,180,6.0,8.0,75,0.00,,---,0.01,700.00,VWS V14.01,2013-06-09 21:00:00,
2013-06-09 17:11:00,85.8,77.0,30.06,South,170,6.0,7.0,75,0.00,,,0.01,612,weatherlink.com 1.10,2013-06-09 21:11:00,
2013-06-09 17:26:00,85.9,77.0,30.06,South,184,4.0,7.0,75,0.00,,,0.01,557,weatherlink.com 1.10,2013-06-09 21:26:00,
2013-06-09 17:30:00,85.9,77.1,30.06,South,180,5.0,8.0,75,0.00,,---,0.01,594.00,VWS V14.01,2013-06-09 21:30:00,
2013-06-09 17:41:00,85.3,77.0,30.06,South,186,4.0,9.0,75,0.00,,,0.01,445,weatherlink.com 1.10,2013-06-09 21:41:00,
2013-06-09 17:56:00,84.6,76.0,30.05,SSE,164,10.0,12.0,74,0.00,,,0.01,434,weatherlink.com 1.10,2013-06-09 21:56:00,
2013-06-09 18:00:00,84.3,75.1,30.05,South,180,7.0,12.0,74,0.00,,---,0.01,497.00,VWS V14.01,2013-06-09 22:00:00,
2013-06-09 18:26:00,83.2,76.0,30.05,South,184,6.0,9.0,78,0.00,,,0.01,338,weatherlink.com 1.10,2013-06-09 22:26:00,
2013-06-09 18:30:00,83.2,75.6,30.05,SE,135,7.0,12.0,78,0.00,,---,0.01,398.00,VWS V14.01,2013-06-09 22:30:00,
2013-06-09 19:00:00,82.6,75.4,30.05,South,180,6.0,10.0,79,0.00,,---,0.01,294.00,VWS V14.01,2013-06-09 23:00:00,
2013-06-09 19:11:00,81.7,75.0,30.05,South,182,6.0,10.0,80,0.00,,,0.01,183,weatherlink.com 1.10,2013-06-09 23:11:00,
2013-06-09 19:26:00,81.0,75.0,30.07,South,169,6.0,9.0,82,0.00,,,0.01,100,weatherlink.com 1.10,2013-06-09 23:26:00,
2013-06-09 19:30:00,80.8,74.8,30.07,South,180,7.0,10.0,82,0.00,,---,0.01,163.00,VWS V14.01,2013-06-09 23:30:00,
2013-06-09 19:41:00,80.1,74.0,30.07,ESE,115,3.0,8.0,81,0.00,,,0.01,25,weatherlink.com 1.10,2013-06-09 23:41:00,
2013-06-09 20:00:00,79.4,73.8,30.07,ESE,112,4.0,8.0,83,0.00,,---,0.01,25.00,VWS V14.01,2013-06-10 00:00:00,
2013-06-09 20:11:00,79.1,74.0,30.07,SSW,205,2.0,6.0,84,0.00,,,0.01,0,weatherlink.com 1.10,2013-06-10 00:11:00,
2013-06-09 20:26:00,78.8,74.0,30.08,SW,216,2.0,4.0,86,0.00,,,0.01,0,weatherlink.com 1.10,2013-06-10 00:26:00,
2013-06-09 20:30:00,78.7,74.2,30.08,SSW,202,3.0,6.0,86,0.00,,---,0.01,3.00,VWS V14.01,2013-06-10 00:30:00,
2013-06-09 21:00:00,78.0,74.2,30.08,South,180,3.0,6.0,88,0.00,,---,0.01,0.00,VWS V14.01,2013-06-10 01:00:00,
2013-06-09 21:11:00,77.8,74.0,30.07,SSW,211,3.0,4.0,88,0.00,,,0.01,0,weatherlink.com 1.10,2013-06-10 01:11:00,
2013-06-09 21:30:00,77.8,74.3,30.08,South,180,3.0,6.0,89,0.00,,---,0.01,0.00,VWS V14.01,2013-06-10 01:30:00,
2013-06-09 21:41:00,78.0,75.0,30.08,SSE,159,6.0,9.0,90,0.00,,,0.01,0,weatherlink.com 1.10,2013-06-10 01:41:00,
2013-06-09 21:56:00,77.8,75.0,30.09,SE,146,4.0,7.0,90,0.00,,,0.01,0,weatherlink.com 1.10,2013-06-10 01:56:00,
2013-06-09 22:00:00,77.8,74.6,30.09,SSE,158,5.0,9.0,90,0.00,,---,0.01,0.00,VWS V14.01,2013-06-10 02:00:00,
2013-06-09 22:11:00,77.7,75.0,30.09,SE,138,8.0,8.0,91,0.00,,,0.01,0,weatherlink.com 1.10,2013-06-10 02:11:00,
2013-06-09 22:26:00,77.7,75.0,30.09,SSE,153,4.0,7.0,91,0.00,,,0.01,0,weatherlink.com 1.10,2013-06-10 02:26:00,
2013-06-09 22:30:00,77.7,74.9,30.09,SSE,158,5.0,8.0,91,0.00,,---,0.01,0.00,VWS V14.01,2013-06-10 02:30:00,
2013-06-09 22:41:00,77.8,75.0,30.09,SSE,156,5.0,8.0,91,0.00,,,0.01,0,weatherlink.com 1.10,2013-06-10 02:41:00,
2013-06-09 22:56:00,77.7,75.0,30.10,ESE,117,3.0,8.0,92,0.00,,,0.01,0,weatherlink.com 1.10,2013-06-10 02:56:00,
2013-06-09 23:00:00,77.8,75.3,30.10,SSE,158,5.0,8.0,92,0.00,,---,0.01,0.00,VWS V14.01,2013-06-10 03:00:00,
2013-06-09 23:11:00,77.6,75.0,30.10,ESE,113,3.0,5.0,92,0.00,,,0.01,0,weatherlink.com 1.10,2013-06-10 03:11:00,
2013-06-09 23:26:00,77.6,75.0,30.11,ESE,105,3.0,5.0,92,0.00,,,0.01,0,weatherlink.com 1.10,2013-06-10 03:26:00,
2013-06-09 23:30:00,77.6,75.1,30.11,ESE,112,3.0,6.0,92,0.00,,---,0.01,0.00,VWS V14.01,2013-06-10 03:30:00,
2013-06-09 23:41:00,77.5,75.0,30.11,ESE,115,4.0,4.0,92,0.00,,,0.01,0,weatherlink.com 1.10,2013-06-10 03:41:00,
2013-06-09 23:56:00,77.4,75.0,30.10,SE,134,2.0,5.0,92,0.00,,,0.01,0,weatherlink.com 1.10,2013-06-10 03:56:00,